Location: Bratislava
(48.1517°N, 17.1093°E)
Time: 23:47:58
(UTC+02:00)

ISS - Visible Passes

Search period start: 26 March 2023 00:00
Search period end: 05 April 2023 01:00
Orbit: 414 x 422 km, 51.6° (Epoch: 26 March)

Date Brightness Start Highest point End Pass type
(mag) Time Alt. Az. Time Alt. Az. Time Alt. Az.
26 Mar -2.9 19:43:45 10° WNW 19:46:59 43° N 19:50:13 10° ENE visible
26 Mar -3.4 21:20:40 10° WNW 21:23:36 64° NW 21:23:36 64° NW visible
27 Mar -3.5 20:32:38 10° WNW 20:35:57 61° NNE 20:37:30 28° E visible
27 Mar -1.0 22:09:32 10° WNW 22:10:26 16° W 22:10:26 16° W visible
28 Mar -3.2 19:44:32 10° WNW 19:47:49 50° N 19:51:05 10° E visible
28 Mar -3.2 21:21:21 10° WNW 21:24:18 51° SW 21:24:18 51° SW visible
29 Mar -3.8 20:33:11 10° WNW 20:36:33 79° SSW 20:38:10 28° ESE visible
29 Mar -0.7 22:10:43 10° W 22:11:05 12° WSW 22:11:05 12° WSW visible
30 Mar -3.7 19:45:01 10° WNW 19:48:22 76° NNE 19:51:43 10° ESE visible
30 Mar -2.1 21:22:06 10° W 21:24:53 24° SW 21:24:57 24° SW visible
31 Mar -2.7 20:33:40 10° WNW 20:36:48 37° SW 20:38:49 18° SSE visible
01 Apr -1.0 21:23:54 10° WSW 21:24:45 11° SW 21:25:35 10° SSW visible
02 Apr -1.3 20:34:24 10° W 20:36:39 17° SW 20:38:54 10° S visible
